Simultaneous Nadir Overpasses (SNOs) Predictions

Prediction of SNOs between GOES-16 and NOAA-20 Satellite Orbit:

Table of predicted SNOs for the next 14.0 days since TLE Epoch: 8/7/2021
Index Date Time (GOES-16) GOES-16 Lat,Lon NOAA-20 Lat,Lon Distance(km) Time Diff (sec)
1 08/07/2021 18:39:35 0.12, -75.23 -0.70, -78.99 427.33 80
2 08/08/2021 18:23:30 0.12, -75.24 0.27, -74.45 89.93 80
3 08/11/2021 06:26:34 -0.12, -75.26 -0.15, -75.20 7.31 80
4 08/13/2021 18:27:05 0.13, -75.29 0.00, -75.98 77.22 80
5 08/14/2021 18:11:00 0.12, -75.31 0.97, -71.44 440.76 80
6 08/16/2021 06:32:48 -0.14, -75.32 0.17, -76.72 158.62 80
7 08/17/2021 06:14:04 -0.14, -75.33 -0.86, -72.19 359.17 80
8 08/18/2021 18:33:20 0.15, -75.36 -0.31, -77.50 242.75 80
9 08/19/2021 18:17:15 0.15, -75.38 0.66, -72.95 275.48 80
